Zurück zum Katalog

ONEWEB-0672

AktivKommunikationPO
NORAD 55831·PAYLOAD·🇬🇧 United Kingdom

Gestartet Mar 9, 2023 von Cape Canaveral Space Force Station

Loading…

Nächste Überflüge (nächste 24 Stunden)

TLE

AktuellSource: CelesTrak SupGP

Epoche: Sep 14, 2026, 22:42 UTC

1 55831C 23029AM  26257.94632361  .00001463  00000+0  36020-2 0  2577
2 55831  87.9138 256.5292 0001936  97.0965 289.0324 13.20768284    16

Verfolge ONEWEB-0672 in Echtzeit mit AllMySat

Download on the App Store